STARLINK-33746, 63446

Orbit data source: Space-Track

STARLINK-33746, 63446 is a payload satellite owned by SpaceX/Seattle (US) in LEO that was launched on Fri, 04 Apr 2025 UTC via an FALCON 9 launch vehicle from the Air Force Western Test Range (AFWTR). Payload-class satellites include a variety of spacecraft equipped with specific instruments for various scientific and technological missions. These include communications satellites like Starlink; space stations such as the ISS; scientific satellites like the Hubble; Earth observation satellites from companies like Planet Labs, Umbra, and HawkEye 360; GPS; miniature CubeSats for education and research; and military/defense satellites.

Loading next visibility...
Identifier
63446, 2025-069P
Orbit
LEO
Country
Flag of USUS
Related business
Manufacturer
SpaceX/Seattle
Mission
Operational Commercial Communications
Bus & Motor
STARLINK V2MO, Unknown motor
Mass
575 kg wet, ~530 kg dry
Launch date (UTC)
2025-04-04 (1 year ago)
Launch vehicle
FALCON 9
Launch site
Air Force Western Test Range (AFWTR)
Object type
Payload
Rocket body
Debris
Shape & HBR
Box + 2 Pan, 17.7 m
Radar Cross Section
36.964 m², Large (>1 m²)

Expand to show TLE details & history
Last TLE update: 11 hours ago

TLE from 11 hours ago
0 STARLINK-33746
1 63446U 25069P   26145.32127667  .00035355  00000-0  81764-3 0  9997
2 63446  53.1589 143.9521 0000994  67.7779 292.3333 15.42178845 65120
Epoch: 2026-05-25T07:42Z
TLE epoch observation values (Epoch: 2026-05-25T07:42:38.304Z)
Latitude
0.00004°
Longitude
145.38179°
Altitude
440.327 km
Speed
7.649 km/s
True Right ascension
09h 35m 48s
True Declination
0° 00' 00"
Sunlit
Object was in daylight at epoch
Visualization orbit readout
Latitude
Unknown
Longitude
Unknown
Altitude
Unknown
Speed
Unknown
Apparent Right ascension
Unknown
Apparent Declination
Unknown
Sunlit
N/A
Visualization observer readout
Local Sidereal Time
03:50:38
Azimuth
Unknown
Elevation
Unknown
Doppler factor
Unknown
Orbital elements
Apogee altitude
440.616 km
Perigee altitude
439.26 km
Semi-major axis
6,818.075 km
Eccentricity
0.0001
Inclination
53.1589°
RAAN
143.9521°
Arg. of periapsis
67.7779°
True anomaly
292.32276°
Mean anomaly
292.3333°
Eccentric anomaly
292.32803°
Mean motion
3.85523 °/min
Orbital period
93.38 mins
BSTAR
0.00081764
Loading maneuver chart data...
Computing Atmospheric mass density...
Loading historical data...
Loading historical data...
Loading historical data...
Loading historical data...
Loading historical data...
Loading historical data...
Loading historical data...

Documentation

Showing up to 5 results
|